Ridgedale, MO

11:23 PM CDT on August 26, 2016 (GMT -0500)
Branson

Weather History for KBBG - October, 2011

Change the Weather History Date:

Wednesday, October 12, 2011

  Actual Average (KHRO) Record (KHRO)
Temperature  
Mean Temperature 62 °F 60 °F  
Max Temperature 68 °F 71 °F 93 °F (1928)
Min Temperature 55 °F 49 °F 25 °F (1909)
Degree Days  
Heating Degree Days 4 6  
Month to date heating degree days 60  
Since 1 July heating degree days 103  
Cooling Degree Days 0 1  
Month to date cooling degree days 18  
Year to date cooling degree days 1397  
Growing Degree Days 12 (Base 50)    
Moisture  
Dew Point 58 °F    
Average Humidity 92    
Maximum Humidity 100    
Minimum Humidity 78    
Precipitation  
Precipitation 0.56 in 0.10 in 2.03 in (1954)
Month to date precipitation 1.33  
Year to date precipitation 34.49  
Snow  
Snow 0.00 in 0.00 in - ()
Month to date snowfall 0.0  
Since 1 July snowfall 0.0  
Since 1 September snowfall 0.0  
Snow Depth -    
Sea Level Pressure  
Sea Level Pressure 29.80 in    
Wind  
Wind Speed 3 mph (SE)    
Max Wind Speed 14 mph    
Max Gust Speed 17 mph    
Visibility 8 miles    
Events Rain , Thunderstorm    
T = Trace of Precipitation, MM = Missing Value Source: NWS Daily Summary

Daily Weather History Graph

Daily Weather History Graph

Search for Another Location

Airport or City:

Trip Planner

Search our weather history database for the weather conditions in past years. The results will help you decide how hot, cold, wet, or windy it might be!

Date:

Astronomy

Oct. 12, 2011 Rise Set
Actual Time 7:17 AM CDT 6:40 PM CDT
Civil Twilight 6:51 AM CDT 7:06 PM CDT
Nautical Twilight 6:21 AM CDT 7:36 PM CDT
Astronomical Twilight 5:51 AM CDT 8:06 PM CDT
Moon 6:46 PM CDT (10/12) 7:49 AM CDT (10/12)
Length of Visible Light 12h 15m
Length of Day
11h 23m
Full, 100% of the Moon is Illuminated
Oct 12
Full
Oct 19
Last Quarter
Oct 26
New
Nov 2
First Quarter
Nov 10
Full

Hourly Weather History & Observations

Time (CDT) Temp. Dew Point Humidity Pressure Visibility Wind Dir Wind Speed Gust Speed Precip Events Conditions
12:15 AM 62.6 °F 59.0 °F 88% 29.89 in 10.0 mi Calm Calm - N/A Thunderstorm Mostly Cloudy
12:35 AM 62.6 °F 59.0 °F 88% 29.88 in 5.0 mi Calm Calm - N/A Rain , Thunderstorm Light Rain
12:55 AM 62.6 °F 59.0 °F 88% 29.88 in 7.0 mi Calm Calm - 0.01 in Rain , Thunderstorm Light Rain
1:15 AM 60.8 °F 57.2 °F 88% 29.87 in 10.0 mi SSE 9.2 mph - N/A Thunderstorm Overcast
1:35 AM 60.8 °F 55.4 °F 82% 29.86 in 10.0 mi Calm Calm - N/A Thunderstorm Mostly Cloudy
1:55 AM 60.8 °F 57.2 °F 88% 29.86 in 5.0 mi Calm Calm - 0.01 in Rain Light Rain
2:35 AM 59.0 °F 57.2 °F 94% 29.85 in 10.0 mi Calm Calm - N/A   Partly Cloudy
2:55 AM 59.0 °F 57.2 °F 94% 29.85 in 10.0 mi Calm Calm - N/A   Mostly Cloudy
3:15 AM 59.0 °F 57.2 °F 94% 29.85 in 10.0 mi Calm Calm - N/A   Mostly Cloudy
3:35 AM 60.8 °F 57.2 °F 88% 29.84 in 10.0 mi Calm Calm - N/A   Overcast
3:55 AM 60.8 °F 57.2 °F 88% 29.82 in 10.0 mi SSE 4.6 mph - N/A   Overcast
4:15 AM 60.8 °F 59.0 °F 94% 29.81 in 2.0 mi SE 8.1 mph - 0.15 in Rain , Thunderstorm Light Rain
4:35 AM 62.6 °F 59.0 °F 88% 29.81 in 10.0 mi SE 12.7 mph 16.1 mph 0.15 in Thunderstorm Overcast
4:55 AM 60.8 °F 59.0 °F 94% 29.81 in 10.0 mi SE 6.9 mph - 0.15 in   Overcast
5:15 AM 60.8 °F 59.0 °F 94% 29.80 in 10.0 mi SSE 6.9 mph - N/A Thunderstorm Thunderstorm
5:35 AM 60.8 °F 59.0 °F 94% 29.80 in 10.0 mi Calm Calm - N/A Thunderstorm Overcast
5:55 AM 62.6 °F 59.0 °F 88% 29.84 in 10.0 mi NW 6.9 mph 17.3 mph N/A Thunderstorm Mostly Cloudy
6:15 AM 59.0 °F 59.0 °F 100% 29.85 in 3.0 mi NW 6.9 mph - 0.02 in Rain , Thunderstorm Light Rain
6:35 AM 59.0 °F 59.0 °F 100% 29.86 in 4.0 mi Calm Calm - 0.35 in Rain , Thunderstorm Light Thunderstorms and Rain
6:50 AM 59.0 °F 59.0 °F 100% 29.86 in 8.0 mi NNW 5.8 mph - N/A Thunderstorm Thunderstorm
7:45 AM 59.0 °F 59.0 °F 100% 29.88 in 2.0 mi South 9.2 mph - N/A Rain Light Rain
8:45 AM 59.0 °F 57.2 °F 94% 29.84 in 5.0 mi SE 6.9 mph - N/A Rain Light Rain
9:45 AM 59.0 °F 59.0 °F 100% 29.85 in 5.0 mi SSE 12.7 mph - N/A Rain Light Rain
10:50 AM 60.8 °F 59.0 °F 94% 29.86 in 10.0 mi Calm Calm - N/A   Overcast
11:50 AM 59.0 °F 59.0 °F 100% 29.85 in 3.0 mi SSE 4.6 mph - N/A Rain Light Rain
12:45 PM 59.0 °F 59.0 °F 100% 29.82 in 10.0 mi SSE 10.4 mph - N/A   Mostly Cloudy
2:48 PM 66.2 °F 60.8 °F 83% 29.76 in 10.0 mi SSE 5.8 mph - N/A   Mostly Cloudy
4:57 PM 68.0 °F 60.8 °F 78% 29.72 in 10.0 mi ESE 6.9 mph - N/A   Scattered Clouds
5:56 PM 64.4 °F 60.8 °F 88% 29.71 in 10.0 mi ESE 6.9 mph - N/A Rain Light Rain
6:17 PM 64.4 °F 62.6 °F 94% 29.71 in 5.0 mi ESE 5.8 mph - N/A Rain , Thunderstorm Thunderstorms and Rain
7:55 PM 60.8 °F 57.2 °F 88% 29.72 in 10.0 mi South 13.8 mph - N/A Thunderstorm Thunderstorm
8:50 PM 57.2 °F 57.2 °F 100% 29.72 in 10.0 mi ENE 4.6 mph - N/A   Mostly Cloudy
9:15 PM 59.0 °F 57.2 °F 94% 29.74 in 3.0 mi Calm Calm - 0.04 in Rain , Thunderstorm Light Thunderstorms and Rain
9:35 PM 59.0 °F 57.2 °F 94% 29.73 in 10.0 mi Calm Calm - 0.04 in   Scattered Clouds
9:55 PM 57.2 °F 55.4 °F 94% 29.73 in 10.0 mi Calm Calm - 0.04 in   Clear
10:15 PM 57.2 °F 55.4 °F 94% 29.73 in 10.0 mi Calm Calm - N/A Thunderstorm Clear
10:35 PM 55.4 °F 53.6 °F 94% 29.73 in 10.0 mi Calm Calm - N/A   Clear
10:55 PM 55.4 °F 53.6 °F 94% 29.73 in 10.0 mi Calm Calm - N/A   Clear
11:15 PM 55.4 °F 53.6 °F 94% 29.73 in 10.0 mi Calm Calm - N/A   Scattered Clouds
11:35 PM 57.2 °F 53.6 °F 88% 29.73 in 10.0 mi Calm Calm - N/A   Scattered Clouds
11:55 PM 55.4 °F 53.6 °F 94% 29.73 in 10.0 mi Calm Calm - N/A Thunderstorm Partly Cloudy